CW0262 Port St. Lucie FL US current weather conditions

sailwx.info

Wind from 084

Air temperature 26.7° C
Dewpoint 26.7° C

Last reported at 2019-Jul-21 12:02 UTC.
Time now 2019-Jul-21 12:45 UTC

Location: N 27°17' W 080°20'.
View on Google Maps.

See reports from other nearby stations

  
Tides and Currents Weather Stations Pressure Air Temp Water Temp Dewpoint Dewpoint Depression Visibility Wind Speed Wind Dir Waves Ship Positions
date/time (UTC)wind fromknots sea level pressurealtimeterstation pressurevisibilityair tempwater tempwave heightnotes
2019-Jul-21 12:02 084 26.7
2019-Jul-21 11:52 081 25.6
2019-Jul-21 11:42 088 25.0
2019-Jul-21 11:32 088 25.0
2019-Jul-21 11:22 088 25.0
2019-Jul-21 10:52 108 24.4
2019-Jul-21 10:42 109 24.4
2019-Jul-21 10:32 109 24.4
2019-Jul-21 10:12 108 24.4
2019-Jul-21 10:02 109 24.4
2019-Jul-21 09:52 108 24.4
2019-Jul-21 09:42 109 24.4
2019-Jul-21 09:32 109 24.4
2019-Jul-21 09:22 109 24.4
2019-Jul-21 09:12 109 24.4
2019-Jul-21 09:02 108 24.4
2019-Jul-21 08:42 108 24.4
2019-Jul-21 08:22 109 24.4
2019-Jul-21 08:12 109 24.4
2019-Jul-21 08:02 109 24.4
2019-Jul-21 07:52 109 24.4
2019-Jul-21 07:12 108 25.0
2019-Jul-21 07:02 163 0 gusting 4 25.0
2019-Jul-21 06:42 084 25.6
2019-Jul-21 06:32 084 25.6
2019-Jul-21 06:22 084 25.6
2019-Jul-21 06:12 079 25.6
2019-Jul-21 06:02 151 25.6
2019-Jul-21 05:52 151 25.6
2019-Jul-21 05:32 152 25.6
2019-Jul-21 05:12 151 25.6
2019-Jul-21 05:02 161 0 gusting 6 25.6
2019-Jul-21 04:52 236 25.6
2019-Jul-21 04:42 236 25.6
2019-Jul-21 04:12 114 25.6
2019-Jul-21 04:02 114 26.1
2019-Jul-21 03:52 114 26.1
2019-Jul-21 03:12 114 26.1
2019-Jul-21 02:42 114 26.1
2019-Jul-21 02:32 114 26.7
2019-Jul-21 02:22 114 26.7
2019-Jul-21 02:12 114 26.7
2019-Jul-21 02:02 114 26.7
2019-Jul-21 01:52 114 27.2
2019-Jul-21 00:52 101 1 gusting 5 27.8
2019-Jul-21 00:42 098 0 gusting 4 27.8
2019-Jul-21 00:32 080 27.8
2019-Jul-21 00:22 095 1 gusting 5 27.8
2019-Jul-21 00:02 088 2 gusting 6 28.3
2019-Jul-20 23:52 090 3 gusting 6 28.3
2019-Jul-20 23:42 082 1 gusting 6 28.3
2019-Jul-20 23:22 100 2 gusting 6 28.9
2019-Jul-20 23:12 089 4 gusting 6 28.9
2019-Jul-20 22:42 133 3 gusting 7 29.4
2019-Jul-20 22:32 141 6 gusting 8 29.4
2019-Jul-20 22:12 129 5 gusting 10 30.0
2019-Jul-20 21:52 103 4 gusting 12 30.6
2019-Jul-20 21:42 163 5 gusting 10 30.6
2019-Jul-20 21:32 130 6 gusting 12 30.6
2019-Jul-20 21:12 152 6 gusting 13 31.7
2019-Jul-20 21:02 165 6 gusting 13 31.7
2019-Jul-20 20:42 108 6 gusting 12 31.7
2019-Jul-20 20:32 169 6 gusting 14 31.1
2019-Jul-20 20:22 101 4 gusting 12 31.1
2019-Jul-20 20:02 137 5 gusting 13 31.1
2019-Jul-20 19:52 129 5 gusting 12 30.6
2019-Jul-20 19:42 157 6 gusting 12 30.6
2019-Jul-20 19:32 138 4 gusting 10 30.6
2019-Jul-20 19:22 108 5 gusting 12 30.6
2019-Jul-20 19:12 143 6 gusting 13 31.1
2019-Jul-20 19:02 164 4 gusting 11 31.1
2019-Jul-20 18:52 125 5 gusting 11 31.1
2019-Jul-20 18:42 142 4 gusting 10 31.7
2019-Jul-20 18:32 145 4 gusting 12 32.2
2019-Jul-20 18:22 101 6 gusting 12 31.7
2019-Jul-20 18:12 081 6 gusting 12 31.7
2019-Jul-20 18:02 117 6 gusting 13 32.8
2019-Jul-20 17:42 161 4 gusting 12 32.8
2019-Jul-20 17:32 098 5 gusting 10 31.7
2019-Jul-20 16:52 149 1 gusting 8 29.4
2019-Jul-20 16:42 088 2 gusting 8 28.9
2019-Jul-20 16:32 237 2 gusting 7 28.9
2019-Jul-20 16:22 187 6 gusting 11 29.4
2019-Jul-20 16:12 171 3 gusting 8 30.0
2019-Jul-20 16:02 167 5 gusting 8 30.6
2019-Jul-20 15:52 180 5 gusting 8 31.1
2019-Jul-20 15:32 161 1 gusting 8 30.6
2019-Jul-20 15:22 092 3 gusting 6 30.6
2019-Jul-20 15:12 149 2 gusting 8 30.0
2019-Jul-20 14:52 176 5 gusting 8 29.4
2019-Jul-20 14:42 160 4 gusting 8 28.9
2019-Jul-20 14:22 206 5 gusting 8 29.4
2019-Jul-20 14:12 153 4 gusting 8 28.9
2019-Jul-20 14:02 110 2 gusting 8 28.3
2019-Jul-20 13:42 159 0 gusting 6 27.8
2019-Jul-20 13:32 184 3 gusting 6 27.8
2019-Jul-20 13:22 176 2 gusting 6 27.8
2019-Jul-20 13:12 145 2 gusting 6 27.8
2019-Jul-20 13:02 181 27.2
2019-Jul-20 12:52 346 26.7
2019-Jul-20 12:42 346 26.1
2019-Jul-20 12:22 346 25.6
2019-Jul-20 12:12 346 25.0
2019-Jul-20 12:02 346 24.4
2019-Jul-20 11:42 338 24.4
2019-Jul-20 11:22 338 23.9
2019-Jul-20 11:12 353 23.9
2019-Jul-20 11:02 353 23.3
2019-Jul-20 10:52 353 23.3
2019-Jul-20 10:42 353 23.3
2019-Jul-20 10:12 353 23.3
2019-Jul-20 10:02 353 23.3
2019-Jul-20 09:52 353 23.9
2019-Jul-20 09:32 353 23.9
2019-Jul-20 09:22 353 23.9
2019-Jul-20 09:12 353 23.3
2019-Jul-20 09:02 353 23.9
2019-Jul-20 08:52 353 23.9
2019-Jul-20 08:42 353 23.9
2019-Jul-20 08:32 353 23.9
2019-Jul-20 08:22 353 23.9
2019-Jul-20 08:12 353 23.9
2019-Jul-20 08:02 353 23.9
2019-Jul-20 07:42 353 23.9
2019-Jul-20 07:32 353 23.9
2019-Jul-20 07:22 105 23.9
2019-Jul-20 07:12 109 23.9
2019-Jul-20 07:02 109 24.4
2019-Jul-20 06:42 109 24.4
2019-Jul-20 06:32 109 24.4
2019-Jul-20 06:12 109 24.4
2019-Jul-20 05:52 109 24.4
2019-Jul-20 05:42 109 24.4
2019-Jul-20 05:22 109 24.4
2019-Jul-20 05:12 109 25.0
2019-Jul-20 05:02 109 25.0
2019-Jul-20 04:42 109 24.4
2019-Jul-20 04:22 109 25.0
2019-Jul-20 04:12 109 25.0
2019-Jul-20 04:02 109 25.0
2019-Jul-20 03:42 109 25.0
2019-Jul-20 03:32 109 25.0
2019-Jul-20 03:12 109 25.0
2019-Jul-20 03:02 109 25.0
2019-Jul-20 02:52 109 25.0
2019-Jul-20 02:42 109 25.0
2019-Jul-20 02:12 109 25.6
2019-Jul-20 01:52 109 25.6
2019-Jul-20 01:42 109 26.1
2019-Jul-20 01:32 109 26.1
2019-Jul-20 01:22 085 1 gusting 6 26.1
2019-Jul-20 01:02 287 26.1
2019-Jul-20 00:22 287 26.7
2019-Jul-20 00:02 287 26.7
2019-Jul-19 23:42 287 0 gusting 6 27.2
2019-Jul-19 23:22 281 1 gusting 5 27.2
2019-Jul-19 23:12 302 1 gusting 5 27.2
2019-Jul-19 23:02 292 27.2
2019-Jul-19 22:52 271 4 gusting 6 27.2
2019-Jul-19 22:32 181 27.8
2019-Jul-19 22:22 177 27.8
2019-Jul-19 22:02 213 27.8
2019-Jul-19 21:52 196 2 gusting 5 27.8
2019-Jul-19 21:32 173 27.8
2019-Jul-19 21:22 165 27.8
2019-Jul-19 21:12 159 27.2
2019-Jul-19 20:52 110 27.2
2019-Jul-19 20:42 053 27.2
2019-Jul-19 20:32 053 26.7
2019-Jul-19 20:12 050 26.1
2019-Jul-19 19:52 049 25.6
2019-Jul-19 19:32 011 25.0
2019-Jul-19 19:22 012 25.0
2019-Jul-19 19:12 035 25.0
2019-Jul-19 19:02 035 24.4
2019-Jul-19 18:02 272 0 gusting 6 24.4
2019-Jul-19 17:52 271 4 gusting 11 24.4
2019-Jul-19 17:12 223 4 gusting 10 26.1
2019-Jul-19 17:02 052 4 gusting 6 27.2
2019-Jul-19 16:32 273 27.8
2019-Jul-19 16:22 281 2 gusting 8 28.3
2019-Jul-19 16:02 083 30.0
2019-Jul-19 15:52 142 2 gusting 6 30.0
2019-Jul-19 15:32 158 0 gusting 6 28.9
2019-Jul-19 15:12 336 26.7
2019-Jul-19 15:02 315 4 gusting 6 26.7
2019-Jul-19 14:52 255 1 gusting 8 25.6
2019-Jul-19 14:42 216 6 gusting 19 25.6
2019-Jul-19 14:22 232 28.3
2019-Jul-19 14:12 196 2 gusting 6 28.3
2019-Jul-19 14:02 174 2 gusting 6 28.3
2019-Jul-19 13:52 160 3 gusting 7 28.3
2019-Jul-19 13:42 149 2 gusting 6 28.3
2019-Jul-19 13:32 097 2 gusting 6 28.3
2019-Jul-19 13:22 178 27.8
2019-Jul-19 13:12 161 1 gusting 7 27.8
2019-Jul-19 13:02 153 2 gusting 6 27.8
2019-Jul-19 12:52 137 1 gusting 6 27.8
2019-Jul-19 12:42 195 2 gusting 6 27.2
2019-Jul-19 12:32 161 2 gusting 6 27.2
2019-Jul-19 12:22 165 2 gusting 6 27.2